Meridian, MS

1:30 PM CDT on October 19, 2019 (GMT -0500)
Key

Weather History for KMEI - August, 2019

Change the Weather History Date:

Wednesday, August 21, 2019

  Actual Average Record
Temperature  
Mean Temperature 82 °F 80 °F  
Max Temperature 91 °F 91 °F 104 °F (1980)
Min Temperature 73 °F 69 °F 56 °F (1893)
Degree Days  
Heating Degree Days 0 0  
Month to date heating degree days 0 0  
Since 1 June heating degree days 0 0  
Since 1 July heating degree days 0 0  
Cooling Degree Days 18 15  
Month to date cooling degree days 401 329  
Year to date cooling degree days 1916 1476  
Since 1 June cooling degree days 1420 1193  
Growing Degree Days 32 (Base 50)    
Moisture  
Dew Point 73 °F    
Average Humidity 83    
Maximum Humidity 94    
Minimum Humidity 54    
Precipitation  
Precipitation 0.11 in 0.13 in 1.48 in (1970)
Month to date precipitation 3.37 2.86  
Year to date precipitation 41.95 37.83  
Sea Level Pressure  
Sea Level Pressure 30.06 in    
Wind  
Wind Speed 4 mph ()    
Max Wind Speed 17 mph    
Max Gust Speed 22 mph    
Visibility 9.6 miles    
Events Rain , Thunderstorm    
T = Trace of Precipitation, MM = Missing Value Source: Averaged Metar Reports

Daily Weather History Graph

Daily Weather History Graph

Search for Another Location

Airport or City:

Astronomy

Aug. 21, 2019 Rise Set
Actual Time 6:22 AM CDT 7:32 PM CDT
Civil Twilight 5:57 AM CDT 7:58 PM CDT
Nautical Twilight 5:26 AM CDT 8:28 PM CDT
Astronomical Twilight 4:55 AM CDT 9:00 PM CDT
Moon 11:10 PM CDT (8/21) 11:40 AM CDT (8/21)
Length of Visible Light 14h 01m
Length of Day
13h 10m
Waning Gibbous, 69% of the Moon is Illuminated
Aug 21
Waning Gibbous
Aug 23
Last Quarter
Aug 30
New
Sep 5
First Quarter
Sep 13
Full

Hourly Weather History & Observations

Time (CDT) Temp. Heat Index Dew Point Humidity Pressure Visibility Wind Dir Wind Speed Gust Speed Precip Events Conditions
12:58 AM 77.0 °F - 73.0 °F 88% 30.07 in 10.0 mi ESE 4.6 mph - N/A   Partly Cloudy
1:58 AM 77.0 °F - 73.0 °F 88% 30.05 in 10.0 mi Calm Calm - N/A   Mostly Cloudy
2:58 AM 75.9 °F - 73.0 °F 91% 30.01 in 10.0 mi South 8.1 mph - N/A   Overcast
3:58 AM 77.0 °F - 73.0 °F 88% 30.01 in 10.0 mi South 5.8 mph - N/A   Overcast
4:58 AM 75.9 °F - 73.0 °F 91% 30.01 in 10.0 mi SSW 4.6 mph - N/A   Overcast
5:58 AM 75.9 °F - 73.9 °F 94% 30.03 in 5.0 mi South 6.9 mph - N/A   Overcast
6:58 AM 75.9 °F - 73.9 °F 94% 30.06 in 5.0 mi SSE 3.5 mph - N/A   Overcast
7:46 AM 78.1 °F - 73.9 °F 87% 30.08 in 10.0 mi SSE 4.6 mph - N/A   Overcast
7:58 AM 78.1 °F - 73.9 °F 87% 30.07 in 10.0 mi South 4.6 mph - N/A   Overcast
8:58 AM 78.1 °F - 73.9 °F 87% 30.08 in 10.0 mi South 3.5 mph - N/A   Overcast
9:32 AM 80.1 °F 84.5 °F 73.9 °F 81% 30.10 in 10.0 mi Calm Calm - N/A   Overcast
9:39 AM 80.1 °F 84.5 °F 73.9 °F 81% 30.10 in 10.0 mi South 3.5 mph - N/A   Overcast
9:47 AM 81.0 °F 86.2 °F 73.9 °F 79% 30.10 in 10.0 mi SSW 4.6 mph - N/A   Overcast
9:58 AM 81.0 °F 86.2 °F 73.9 °F 79% 30.10 in 10.0 mi SSW 5.8 mph - N/A   Overcast
10:05 AM 81.0 °F 86.2 °F 73.9 °F 79% 30.11 in 10.0 mi SSW 4.6 mph - N/A   Overcast
10:15 AM 81.0 °F 86.2 °F 73.9 °F 79% 30.11 in 10.0 mi South 3.5 mph - N/A   Overcast
10:35 AM 82.9 °F 89.4 °F 73.9 °F 74% 30.11 in 10.0 mi West 3.5 mph - N/A   Overcast
10:46 AM 82.9 °F 88.8 °F 73.0 °F 72% 30.11 in 10.0 mi WNW 4.6 mph - N/A   Overcast
10:58 AM 82.9 °F 89.4 °F 73.9 °F 74% 30.10 in 10.0 mi WSW 3.5 mph - N/A   Overcast
11:58 AM 84.9 °F 92.1 °F 73.9 °F 69% 30.08 in 10.0 mi Calm Calm - 0.00 in   Mostly Cloudy
12:58 PM 90.0 °F 97.9 °F 73.0 °F 57% 30.06 in 10.0 mi SSE 5.8 mph - N/A   Scattered Clouds
1:58 PM 91.9 °F 100.7 °F 73.0 °F 54% 30.04 in 10.0 mi Calm Calm - N/A   Scattered Clouds
2:14 PM 90.0 °F 97.9 °F 73.0 °F 57% 30.04 in 10.0 mi ENE 5.8 mph - N/A Thunderstorm Mostly Cloudy
2:37 PM 82.0 °F 87.4 °F 73.0 °F 74% 30.05 in 10.0 mi ESE 11.5 mph 21.9 mph 0.06 in Rain Light Rain
2:45 PM 82.0 °F 87.4 °F 73.0 °F 74% 30.05 in 10.0 mi SE 13.8 mph - 0.06 in Thunderstorm Thunderstorm
2:58 PM 80.1 °F 84.5 °F 73.9 °F 81% 30.04 in 10.0 mi SSE 9.2 mph - 0.06 in Rain , Thunderstorm Light Thunderstorms and Rain
3:14 PM 79.0 °F - 75.0 °F 88% 30.05 in 10.0 mi South 9.2 mph - 0.01 in Rain , Thunderstorm Light Rain
3:58 PM 77.0 °F - 73.0 °F 88% 30.04 in 10.0 mi SSW 9.2 mph - 0.02 in Rain , Thunderstorm Light Rain
4:31 PM 77.0 °F - 73.9 °F 90% 30.04 in 8.0 mi SSW 5.8 mph - 0.03 in Rain Light Rain
4:58 PM 77.0 °F - 73.9 °F 90% 30.02 in 10.0 mi South 5.8 mph - 0.03 in   Partly Cloudy
5:49 PM 77.0 °F - 73.9 °F 90% 30.02 in 10.0 mi SW 4.6 mph - N/A   Partly Cloudy
5:58 PM 77.0 °F - 73.9 °F 90% 30.02 in 10.0 mi WSW 5.8 mph - N/A   Scattered Clouds
6:58 PM 77.0 °F - 73.9 °F 90% 30.01 in 10.0 mi South 3.5 mph - N/A   Clear
7:58 PM 75.9 °F - 73.9 °F 94% 30.02 in 10.0 mi SSE 4.6 mph - N/A   Clear
8:58 PM 75.9 °F - 73.0 °F 91% 30.03 in 10.0 mi Calm Calm - N/A   Clear
9:58 PM 75.0 °F - 72.0 °F 90% 30.05 in 9.0 mi NW 3.5 mph - N/A   Clear
10:58 PM 75.0 °F - 73.0 °F 94% 30.04 in 10.0 mi Calm Calm - N/A   Clear
11:22 PM 75.0 °F - 72.0 °F 90% 30.05 in 8.0 mi Calm Calm - N/A   Partly Cloudy
11:58 PM 75.0 °F - 73.0 °F 94% 30.04 in 10.0 mi Calm Calm - N/A   Clear